Other Surface Observations
Issued by NWS

Current Version | Previous Version | Text Only | Print | Product List | Glossary On
Versions: 1 2 3 4 5 6 7 8 9 10 11 12 13 14 15 16 17 18 19 20 21 22 23 24 25 26 27 28 29 30 31 32 33 34 35 36 37 38 39 40 41 42 43 44 45 46 47 48 49 50
000
SXUS53 KWBC 250739
OSOPZ
:SHEF ENCODED 6-MINUTE NOS MET DATA
:NATIONAL WATER LEVEL OBSERVATION NETWORK (NWLON)
:TA(AIR TEMP DEG F)  SLP(SEA LEVEL PRESSURE INCHES)
:UD(WIND DIRECTION WHOLE DEGREES) US(WIND SPEED MPH)
:TW(WATER TEMP DEG F) UG(WIND GUSTS MPH) WC(CONDUCTIVITY uMHOS/CM)
:XV(VISIBILITY SM)
:-9999 (MISSING VALUES)
:PROVIDED BY DOC/NOAA/NOS/CO-OPS, (301) 713-2540
:corms@noaa.gov
.E SDBC1 20220925 Z DH0718/PLIRG/DIN06/30.00/29.99
.E SDBC1 20220925 Z DH0718/TWIRG/DIN06/   72/   72
.E LJAC1 20220925 Z DH0718/TAIRG/DIN06/   70/   70
.E LJAC1 20220925 Z DH0718/PLIRG/DIN06/30.00/30.00
.E LJAC1 20220925 Z DH0718/USIRG/DIN06/    2/    3
.E LJAC1 20220925 Z DH0718/UDIRG/DIN06/   16/   22
.E LJAC1 20220925 Z DH0718/UGIRG/DIN06/    2/    3
.E LJAC1 20220925 Z DH0718/TWIRG/DIN06/   72/   72
.A AGXC1 20220925 Z DH0724/TAIRP    71/UGIRP    13/PLIRP 29.93/UDIRP   269/USIRP     8/TWIRP -9999/WCIRP -9999
.A OHBC1 20220925 Z DH0724/TAIRG -9999/UGIRG -9999/PLIRG 30.02/UDIRG -9999/USIRG -9999/TWIRG    67/WCIRG -9999
.E PRJC1 20220925 Z DH0718/USIRP/DIN06/    2/-9999/    3
.E PRJC1 20220925 Z DH0718/UDIRP/DIN06/  239/-9999/  262
.E PRJC1 20220925 Z DH0718/UGIRP/DIN06/    4/-9999/    4
.A PFDC1 20220925 Z DH0724/TAIRP -9999/UGIRP     2/PLIRP -9999/UDIRP     0/USIRP     1/TWIRP -9999/WCIRG -9999
.E PFXC1 20220925 Z DH0724/TAIRP/DIN06/   70/   70
.E PFXC1 20220925 Z DH0724/PLIRP/DIN06/29.99/29.99
.E PFXC1 20220925 Z DH0724/USIRP/DIN06/    2/    2
.E PFXC1 20220925 Z DH0724/UDIRP/DIN06/  191/  166
.E PFXC1 20220925 Z DH0724/UGIRP/DIN06/    4/    3
.A PXAC1 20220925 Z DH0724/TAIRP -9999/UGIRP     6/PLIRP -9999/UDIRP     0/USIRP     3/TWIRP -9999/WCIRG -9999
.A BAXC1 20220925 Z DH0718/TAIRP -9999/UGIRP     7/PLIRP -9999/UDIRP     0/USIRP     6/TWIRP -9999/WCIRG -9999
.E PSXC1 20220925 Z DH0718/USIRP/DIN06/    4/-9999/    3
.E PSXC1 20220925 Z DH0718/UDIRP/DIN06/  136/-9999/  122
.E PSXC1 20220925 Z DH0718/UGIRP/DIN06/    4/-9999/    4
.A ICAC1 20220925 Z DH0724/TAIRG    69/UGIRG -9999/PLIRG 30.02/UDIRG -9999/USIRG -9999/TWIRG    71/WCIRG -9999
.E NTBC1 20220925 Z DH0724/TAIRG/DIN06/   65/   65
.E NTBC1 20220925 Z DH0724/PLIRG/DIN06/30.02/-9999
.A HRVC1 20220925 Z DH0724/TAIRG    60/UGIRG -9999/PLIRG 30.06/UDIRG -9999/USIRG -9999/TWIRG -9999/WCIRG -9999
.E PSLC1 20220925 Z DH0718/TAIRG/DIN06/   60/   60
.E PSLC1 20220925 Z DH0718/PLIRG/DIN06/30.08/30.08
.E PSLC1 20220925 Z DH0718/USIRG/DIN06/    3/    4
.E PSLC1 20220925 Z DH0718/UDIRG/DIN06/  184/  180
.E PSLC1 20220925 Z DH0718/UGIRG/DIN06/    4/    5
.E PSLC1 20220925 Z DH0718/TWIRG/DIN06/   63/   63
.A MEYC1 20220925 Z DH0730/TAIRP    59/UGIRP -9999/PLIRP -9999/UDIRP     0/USIRP -9999/TWIRP -9999/WCIRG -9999
.E MEYC1 20220925 Z DH0718/TAIRG/DIN06/   59/   59/-9999
.E MEYC1 20220925 Z DH0718/PLIRG/DIN06/-9999/30.08/30.08
.E MEYC1 20220925 Z DH0718/TWIRG/DIN06/-9999/   66/   66
.E FTPC1 20220925 Z DH0718/TAIRG/DIN06/   59/   59
.E FTPC1 20220925 Z DH0718/PLIRG/DIN06/30.07/30.07
.E FTPC1 20220925 Z DH0718/USIRG/DIN06/    9/    8
.E FTPC1 20220925 Z DH0718/UDIRG/DIN06/  304/  307
.E FTPC1 20220925 Z DH0718/UGIRG/DIN06/   15/   13
.E FTPC1 20220925 Z DH0718/TWIRG/DIN06/   64/   64
.E PXSC1 20220925 Z DH0724/TAIRP/DIN06/   61/   61
.E PXOC1 20220925 Z DH0724/TAIRP/DIN06/   61/   60
.E PXOC1 20220925 Z DH0724/PLIRP/DIN06/30.02/30.02
.E PXOC1 20220925 Z DH0724/USIRP/DIN06/    1/    2
.E PXOC1 20220925 Z DH0724/UDIRP/DIN06/  156/  236
.E PXOC1 20220925 Z DH0724/UGIRP/DIN06/    3/    3
.E PXOC1 20220925 Z DH0724/TAIRG/DIN06/   61/   61
.E PXOC1 20220925 Z DH0724/PLIRG/DIN06/30.02/30.02
.E PXOC1 20220925 Z DH0724/USIRG/DIN06/    1/    2
.E PXOC1 20220925 Z DH0724/UDIRG/DIN06/  156/  236
.E PXOC1 20220925 Z DH0724/UGIRG/DIN06/    3/    3
.E RTYC1 20220925 Z DH0724/TAIRG/DIN06/   64/   65
.E RTYC1 20220925 Z DH0724/PLIRG/DIN06/30.06/30.06
.E RTYC1 20220925 Z DH0724/USIRG/DIN06/    1/    2
.E RTYC1 20220925 Z DH0724/UDIRG/DIN06/   43/  331
.E RTYC1 20220925 Z DH0724/UGIRG/DIN06/    2/    2
.E RTYC1 20220925 Z DH0724/TWIRG/DIN06/   72/   72
.E AAMC1 20220925 Z DH0724/TAIRP/DIN06/   62/   62
.E AAMC1 20220925 Z DH0724/PLIRP/DIN06/30.06/30.05
.E AAMC1 20220925 Z DH0724/USIRP/DIN06/    5/    5
.E AAMC1 20220925 Z DH0724/UDIRP/DIN06/  264/  271
.E AAMC1 20220925 Z DH0724/UGIRP/DIN06/    8/    7
.E AAMC1 20220925 Z DH0724/TWIRP/DIN06/   69/   69
.E AAMC1 20220925 Z DH0718/TAIRG/DIN06/   62/   62
.E AAMC1 20220925 Z DH0718/PLIRG/DIN06/30.06/30.06
.E AAMC1 20220925 Z DH0718/USIRG/DIN06/    7/    5
.E AAMC1 20220925 Z DH0718/UDIRG/DIN06/  259/  264
.E AAMC1 20220925 Z DH0718/UGIRG/DIN06/    8/    8
.E AAMC1 20220925 Z DH0718/TWIRG/DIN06/   69/   69
.E LNDC1 20220925 Z DH0724/TAIRP/DIN06/   62/   62
.E LNDC1 20220925 Z DH0724/PLIRP/DIN06/30.05/30.04
.E LNDC1 20220925 Z DH0724/TAIRG/DIN06/   62/   62
.E LNDC1 20220925 Z DH0724/PLIRG/DIN06/30.05/30.04
.E OMHC1 20220925 Z DH0724/USIRP/DIN06/    1/    2
.E OMHC1 20220925 Z DH0724/UDIRP/DIN06/  175/  184
.E OMHC1 20220925 Z DH0724/UGIRP/DIN06/    2/    3
.A OMHC1 20220925 Z DH0724/TAIRG -9999/UGIRG     2/PLIRG -9999/UDIRG   175/USIRG     1/TWIRG -9999/WCIRG -9999
.E OKXC1 20220925 Z DH0724/TAIRP/DIN06/   61/   61
.E OKXC1 20220925 Z DH0724/PLIRP/DIN06/30.05/30.05
.E OKXC1 20220925 Z DH0724/TAIRG/DIN06/   61/   61
.E OKXC1 20220925 Z DH0724/PLIRG/DIN06/30.05/30.05
.E OBXC1 20220925 Z DH0724/TAIRP/DIN06/   62/   62
.E OBXC1 20220925 Z DH0724/TAIRG/DIN06/   62/   62
.E OBXC1 20220925 Z DH0724/XVIRG/DIN06/6.20/6.20
.E PPXC1 20220925 Z DH0724/TAIRP/DIN06/   62/   62
.E PPXC1 20220925 Z DH0724/PLIRP/DIN06/30.05/30.05
.E RCMC1 20220925 Z DH0724/TAIRP/DIN06/   62/   63
.E RCMC1 20220925 Z DH0724/PLIRP/DIN06/30.04/30.04
.E RCMC1 20220925 Z DH0724/USIRP/DIN06/    5/    4
.E RCMC1 20220925 Z DH0724/UDIRP/DIN06/  168/  193
.E RCMC1 20220925 Z DH0724/UGIRP/DIN06/    6/    6
.E RCMC1 20220925 Z DH0724/TWIRP/DIN06/   66/   66
.A PRYC1 20220925 Z DH0724/TAIRG -9999/UGIRG -9999/PLIRG 30.05/UDIRG -9999/USIRG -9999/TWIRG    59/WCIRG -9999
.A MZXC1 20220925 Z DH0724/TAIRG -9999/UGIRG    13/PLIRG 30.02/UDIRG   299/USIRG    10/TWIRG    70/WCIRG -9999/XVIRG 6.20
.A PSBC1 20220925 Z DH0724/TAIRG    73/UGIRG -9999/PLIRG 29.98/UDIRG -9999/USIRG -9999/TWIRG -9999/WCIRG -9999
.E UPBC1 20220925 Z DH0724/USIRP/DIN06/   13/   11
.E UPBC1 20220925 Z DH0724/UDIRP/DIN06/  295/  299
.E UPBC1 20220925 Z DH0724/UGIRP/DIN06/   15/   14
.E DPXC1 20220925 Z DH0724/TAIRP/DIN06/   65/   65
.E DPXC1 20220925 Z DH0724/PLIRP/DIN06/30.01/30.01
.E PCOC1 20220925 Z DH0724/TAIRP/DIN06/   65/   65
.E PCOC1 20220925 Z DH0724/USIRP/DIN06/   10/   11
.E PCOC1 20220925 Z DH0724/UDIRP/DIN06/  224/  224
.E PCOC1 20220925 Z DH0724/UGIRP/DIN06/   11/   11
.E PCOC1 20220925 Z DH0724/TWIRP/DIN06/   70/   70
.A PCOC1 20220925 Z DH0724/TAIRG    65/UGIRG    11/PLIRG -9999/UDIRG   224/USIRG    10/TWIRG    70/WCIRG -9999
.E ANVC1 20220925 Z DH0718/TAIRG/DIN06/   57/   57
.E ANVC1 20220925 Z DH0718/PLIRG/DIN06/30.03/30.03
.E ANVC1 20220925 Z DH0718/USIRG/DIN06/    4/    5
.E ANVC1 20220925 Z DH0718/UDIRG/DIN06/   92/  103
.E ANVC1 20220925 Z DH0718/UGIRG/DIN06/    5/    6
.E ANVC1 20220925 Z DH0718/TWIRG/DIN06/   53/   53
.A HBYC1 20220925 Z DH0724/TAIRG -9999/UGIRG -9999/PLIRG 30.06/UDIRG -9999/USIRG -9999/TWIRG    56/WCIRG -9999
.E NJLC1 20220925 Z DH0642/TAIRG/DIN06/   54/   53/   53/   53/   53/   53/   53/   53
.E CECC1 20220925 Z DH0718/TAIRG/DIN06/   55/   56
.E CECC1 20220925 Z DH0718/PLIRG/DIN06/30.05/30.05
.E CECC1 20220925 Z DH0718/USIRG/DIN06/    2/    2
.E CECC1 20220925 Z DH0718/UDIRG/DIN06/   81/  106
.E CECC1 20220925 Z DH0718/UGIRG/DIN06/    2/    4
.E CECC1 20220925 Z DH0718/TWIRG/DIN06/   59/   59
.A PORO3 20220925 Z DH0724/TAIRG    55/UGIRG    25/PLIRG 30.07/UDIRG   344/USIRG    17/TWIRG -9999/WCIRG -9999
.E CHAO3 20220925 Z DH0718/PLIRG/DIN06/30.14/30.14
.E CHAO3 20220925 Z DH0718/TWIRG/DIN06/   54/   54
.E SBEO3 20220925 Z DH0718/TAIRG/DIN06/   54/   54
.E SBEO3 20220925 Z DH0718/PLIRG/DIN06/30.15/30.15
.E SBEO3 20220925 Z DH0718/USIRG/DIN06/    1/    2
.E SBEO3 20220925 Z DH0718/UDIRG/DIN06/   59/   83
.E SBEO3 20220925 Z DH0718/UGIRG/DIN06/    2/    2
.E SBEO3 20220925 Z DH0718/TWIRG/DIN06/   55/   55
.E TLBO3 20220925 Z DH0718/PLIRG/DIN06/30.17/30.17
.E TLBO3 20220925 Z DH0718/TWIRG/DIN06/   52/   52
.A ASTO3 20220925 Z DH0724/TAIRG    60/UGIRG     2/PLIRG 30.16/UDIRG    86/USIRG     2/TWIRG    66/WCIRG -9999
.E LOPW1 20220925 Z DH0724/PLIRP/DIN06/30.16/30.16
.E LOPW1 20220925 Z DH0724/TWIRP/DIN06/   67/   67
.E LOPW1 20220925 Z DH0718/PLIRG/DIN06/30.16/30.16
.E LOPW1 20220925 Z DH0718/TWIRG/DIN06/   67/   67
.E TOKW1 20220925 Z DH0718/TAIRG/DIN06/   59/   59
.E TOKW1 20220925 Z DH0718/PLIRG/DIN06/30.21/30.21
.E TOKW1 20220925 Z DH0718/USIRG/DIN06/    4/    2
.E TOKW1 20220925 Z DH0718/UDIRG/DIN06/   24/   34
.E TOKW1 20220925 Z DH0718/UGIRG/DIN06/    5/    4
.E TOKW1 20220925 Z DH0718/TWIRG/DIN06/   63/   63
.A WPTW1 20220925 Z DH0730/TAIRP    56/UGIRP -9999/PLIRP -9999/UDIRP     0/USIRP -9999/TWIRP -9999/WCIRG -9999
.E WPTW1 20220925 Z DH0718/TAIRG/DIN06/   56/   56
.E WPTW1 20220925 Z DH0718/PLIRG/DIN06/30.19/30.19
.E WPTW1 20220925 Z DH0718/TWIRG/DIN06/   59/   59
.A LAPW1 20220925 Z DH0730/TAIRP    53/UGIRP     4/PLIRP -9999/UDIRP     0/USIRP     3/TWIRP -9999/WCIRG -9999
.E LAPW1 20220925 Z DH0724/PLIRG/DIN06/30.19/30.19
.E LAPW1 20220925 Z DH0724/TWIRG/DIN06/   57/   57
.E NEAW1 20220925 Z DH0724/TWIRP/DIN06/   51/   51
.E PTAW1 20220925 Z DH0718/TAIRG/DIN06/   52/   52
.E PTAW1 20220925 Z DH0718/PLIRG/DIN06/30.25/30.25
.E PTAW1 20220925 Z DH0718/TWIRG/DIN06/   52/   52
.E PTWW1 20220925 Z DH0718/TAIRG/DIN06/   59/   59
.E PTWW1 20220925 Z DH0718/PLIRG/DIN06/30.24/30.24
.E PTWW1 20220925 Z DH0718/USIRG/DIN06/    6/    6
.E PTWW1 20220925 Z DH0718/UDIRG/DIN06/  267/  273
.E PTWW1 20220925 Z DH0718/UGIRG/DIN06/   10/    9
.E PTWW1 20220925 Z DH0718/TWIRG/DIN06/   52/   52
.E BMTW1 20220925 Z DH0718/TAIRG/DIN06/   57/   57
.E BMTW1 20220925 Z DH0718/PLIRG/DIN06/30.23/30.23
.E BMTW1 20220925 Z DH0718/USIRG/DIN06/    2/    1
.E BMTW1 20220925 Z DH0718/UDIRG/DIN06/   75/   62
.E BMTW1 20220925 Z DH0718/UGIRG/DIN06/    2/    2
.E TCMW1 20220925 Z DH0724/TAIRP/DIN06/   61/   62
.E TCNW1 20220925 Z DH0718/PLIRG/DIN06/30.21/30.21
.E TCNW1 20220925 Z DH0718/TWIRG/DIN06/   56/   56
.E CPMW1 20220925 Z DH0718/TAIRG/DIN06/   56/   56
.A CHYW1 20220925 Z DH0724/TAIRG -9999/UGIRG -9999/PLIRG 30.22/UDIRG -9999/USIRG -9999/TWIRG -9999/WCIRG -9999
.E CPNW1 20220925 Z DH0718/TAIRG/DIN06/   56/   56
.A FRDW1 20220925 Z DH0730/TAIRP    55/UGIRP -9999/PLIRP -9999/UDIRP     0/USIRP -9999/TWIRP -9999/WCIRG -9999
.A FRDW1 20220925 Z DH0724/TAIRG -9999/UGIRG -9999/PLIRG 30.23/UDIRG -9999/USIRG -9999/TWIRG    53/WCIRG -9999
.E MGIP4 20220925 Z DH0724/TAIRP/DIN06/   77/   77
.E MGIP4 20220925 Z DH0724/PLIRP/DIN06/29.87/29.87
.E MGIP4 20220925 Z DH0724/USIRP/DIN06/    3/    3
.E MGIP4 20220925 Z DH0724/UDIRP/DIN06/    8/   11
.E MGIP4 20220925 Z DH0724/UGIRP/DIN06/    5/    4
.E MGIP4 20220925 Z DH0724/TWIRP/DIN06/   85/   85
.E MGIP4 20220925 Z DH0718/TAIRG/DIN06/   77/   77
.E MGIP4 20220925 Z DH0718/PLIRG/DIN06/29.87/29.87
.E MGIP4 20220925 Z DH0718/USIRG/DIN06/    4/    3
.E MGIP4 20220925 Z DH0718/UDIRG/DIN06/  358/    8
.E MGIP4 20220925 Z DH0718/UGIRG/DIN06/    6/    5
.E MGIP4 20220925 Z DH0718/TWIRG/DIN06/   85/   85



USA.gov is the U.S. government's official web portal to all federal, state and local government web resources and services.